Find Starlink 4333

NORAD ID: 53088 Int'l Des: 2022-077 Owner: SPXS Country: US Constellation: starlink operational
LEOCIRCULARRETROGRADESSO

实时位置

正在加载3D地球...

关于 Starlink 4333

正在加载描述...

即将过境

Passes for default location (London). Set your location on the main map for personalized predictions.

高度历史

Loading altitude history...

两行轨道根数

1 53088U 22077AX 26105.07481047 -.00000015 00000-0 31494-5 0 9990
2 53088 97.6020 285.9078 0001535 83.6927 276.4474 15.05647444206381
Epoch: Apr 15, 2026 • Age: 8 hours

当前状态

高度 556.0 km
速度 7.59 km/s
星下点 47.17°N, 75.28°W
发射日期 Jul 11, 2022
运行时间 3.7 years
类型 internet

技术详情

分类 Payload
质量 297.00 kg
干质量 275.00 kg
总质量 297.00 kg
长度 0.20 m
直径 2.80 m
跨度 9.00 m
形状 Box + pan
制造商 SPXS
平台类型 Starlink
阶段状态 In Orbit
所有者/国家 SPXS/US

Most Searched